Location: B?dargowo
(53.3916°N, 14.4413°E)
Time: 09:25:33
(UTC+00:00)

ATLAS 5 CENTAUR R/B - Pass Details

Date: 05 February 2023
Orbit: 460 x 1178 km, 63.3° (Epoch: 19 March)

Event Time Altitude Azimuth Distance (km) Brightness Sun altitude
Rises 19:33:46 0° 310° (NW) 2,887 5.9 -32.9°
Reaches altitude 10° 19:35:56 10° 317° (NW) 2,075 4.9 -33.2°
Enters shadow 19:37:59 25° 331° (NNW) 1,401 3.7 -33.5°
